GFSSW_850_rhum_000.txt.gz
RH
29 28 27 28 29 27 28 22 24 26 18 16 19 22 24 19 13 10 7 8 10 13 14 15 13 14 13 10 8 7 16 16 14 11 10 8 10 9 10 10 14 30 24 29 47
33 33 33 32 31 29 23 22 25 23 17 17 21 23 24 21 13 10 8 10 12 14 15 16 15 14 10 9 9 11 17 13 12 11 11 11 11 9 8 15 32 42 32 36 40
39 36 36 33 29 24 22 23 27 20 17 19 20 21 24 26 14 12 10 12 16 17 18 17 14 15 10 10 10 12 17 14 14 11 12 14 13 11 11 14 17 41 40 38 38
38 36 34 29 25 23 23 26 26 19 16 18 20 24 25 22 22 16 21 20 19 18 17 16 15 15 14 15 12 15 14 14 13 12 12 15 13 14 13 12 14 20 28 44 46
36 32 29 26 24 24 26 28 26 18 16 17 18 24 27 22 20 20 20 20 19 16 15 16 16 17 22 18 15 15 14 14 14 14 13 13 13 14 13 12 14 16 32 37 39
34 31 28 28 29 29 29 28 26 20 15 14 20 27 29 23 21 22 21 18 18 16 16 15 17 16 17 16 18 17 16 16 15 15 15 16 16 15 13 11 14 16 21 23 26
33 32 32 30 27 24 23 21 21 20 19 23 25 27 26 20 21 21 21 20 17 19 16 12 15 16 16 20 17 16 19 19 17 16 16 12 12 15 10 11 12 15 14 14 16
34 33 32 28 25 23 22 20 20 21 22 23 23 27 20 22 21 20 21 20 18 20 20 18 18 16 16 16 21 21 21 25 18 18 13 12 17 12 13 12 12 15 15 15 17
34 32 31 29 28 27 25 22 20 20 22 21 25 28 22 21 20 20 20 17 17 18 18 19 20 18 17 26 28 27 25 22 20 14 14 13 18 16 15 14 13 15 16 15 17
35 32 28 27 27 26 26 25 24 22 22 24 24 26 21 20 18 17 17 14 18 19 19 18 20 27 28 28 31 27 24 23 22 20 26 23 25 23 16 16 14 14 16 16 18
33 30 28 27 27 26 33 39 29 25 23 18 19 19 18 18 19 17 14 16 17 17 25 18 28 26 21 20 22 20 24 28 25 22 29 30 32 28 18 19 19 18 18 21 22
32 29 28 26 25 26 36 43 43 41 27 19 18 16 16 18 18 17 13 17 19 22 17 26 27 18 18 22 21 24 29 33 31 26 30 32 33 24 18 19 18 19 19 20 22
30 30 28 26 28 27 33 27 35 30 42 18 19 19 18 18 18 19 16 18 20 22 21 27 20 16 20 26 26 24 30 32 35 36 33 31 31 22 18 21 21 20 19 19 19
27 28 30 30 30 40 42 24 29 27 56 24 22 20 18 18 20 18 18 21 20 20 19 21 17 17 25 24 26 31 24 31 37 41 46 32 51 27 21 21 22 22 20 20 23
23 27 29 28 46 39 34 22 24 32 73 24 18 18 18 16 16 17 20 19 20 21 21 24 17 21 25 24 25 30 30 38 38 46 42 41 43 30 21 22 24 28 24 25 25
21 26 27 28 38 37 36 20 27 84 69 26 18 19 20 19 17 20 26 22 26 31 29 20 18 21 21 25 28 31 38 44 48 48 63 40 39 39 32 24 32 30 25 25 26
28 27 29 28 27 30 25 26 78 69 30 28 25 21 25 24 24 28 37 42 46 41 51 40 29 24 26 35 35 42 56 79 69 78 71 45 47 36 28 27 28 27 26 25 26
34 33 22 33 36 27 28 71 54 46 31 22 22 21 28 24 24 34 35 45 41 44 57 64 61 40 29 33 37 41 53 82 78 84 76 50 46 38 26 24 23 23 26 29 33
35 26 33 23 29 29 46 80 64 44 29 30 28 30 32 29 24 35 42 44 42 45 54 71 56 41 33 33 33 41 60 44 63 91 86 68 49 30 30 36 31 31 32 34 35
49 34 30 24 30 48 71 51 32 26 30 35 37 36 40 42 40 38 42 43 41 41 41 51 68 49 46 38 36 36 38 64 81 84 94 70 60 50 39 43 40 40 37 40 38
57 41 28 29 41 45 71 48 27 26 28 36 42 47 44 45 47 44 50 44 39 42 44 51 59 61 50 50 51 50 65 56 58 79 95 97 82 45 45 45 45 43 41 43 44
55 45 33 43 47 73 51 30 27 30 30 35 40 44 45 47 51 50 51 45 38 41 55 51 68 81 57 49 42 43 53 62 88 79 86 91 70 39 44 37 39 42 44 47 47
46 44 43 45 72 85 38 39 39 38 40 41 41 40 40 48 52 50 46 40 37 43 47 46 69 83 60 50 56 59 53 58 67 81 85 93 79 36 36 44 44 49 53 52 55
40 79 37 40 54 47 42 43 42 37 38 37 37 39 46 54 49 44 54 48 43 44 44 45 66 67 80 62 68 73 61 56 63 92 80 73 64 49 44 49 53 58 59 59 60
46 45 53 77 60 47 49 46 48 48 37 36 45 49 47 59 57 64 61 60 50 48 48 57 74 68 69 65 65 67 67 67 73 68 85 68 63 53 62 59 60 62 66 66 68
46 50 45 53 48 45 60 44 44 40 43 45 54 57 58 62 58 66 61 62 65 56 61 66 85 78 81 72 77 83 72 70 69 65 66 63 58 68 72 72 72 70 70 74 73
46 47 43 66 57 67 69 42 42 43 43 40 43 51 60 57 54 54 55 55 55 66 75 73 88 96 74 92 94 90 75 65 56 54 58 76 64 72 83 80 78 78 68 71 72

GFSSW_850_rhum_003.txt.gz
RH
30 29 27 28 27 27 26 24 23 25 17 18 21 26 25 14 12 10 10 10 10 15 17 16 14 14 10 12 10 8 17 20 14 11 11 10 11 11 11 18 17 30 27 34 60
35 33 32 30 29 29 27 24 25 22 18 20 24 23 25 15 10 9 11 16 20 19 18 16 13 10 9 10 10 13 19 14 13 11 11 12 11 10 11 27 38 31 26 34 55
40 36 34 32 30 28 23 24 23 20 17 22 22 25 26 20 10 18 21 19 18 16 16 16 14 11 12 12 11 14 19 14 14 12 12 14 14 12 12 18 35 29 29 38 56
38 36 34 31 27 23 24 24 25 18 20 21 20 25 24 21 13 21 20 20 18 15 15 16 15 15 20 21 14 16 14 14 14 13 14 15 14 14 13 12 14 18 22 33 40
36 33 29 26 24 24 24 26 22 20 19 18 21 25 22 19 22 21 20 19 17 15 15 15 15 16 21 18 16 16 15 15 14 14 13 14 14 14 14 12 14 21 32 33 32
34 30 26 25 26 26 26 28 27 21 16 17 24 27 23 21 21 21 19 18 17 12 12 14 15 16 17 18 18 17 17 17 16 15 16 16 16 16 13 12 14 19 31 32 32
32 31 31 31 28 27 27 27 24 17 19 24 27 23 21 21 21 21 20 20 16 15 18 19 19 16 16 18 17 17 19 21 18 17 18 15 14 16 12 12 13 17 25 35 35
34 32 29 26 26 27 26 23 22 22 23 24 27 26 21 21 20 20 20 20 16 18 19 20 19 18 17 17 22 21 23 25 18 20 16 13 20 13 13 15 13 15 24 24 21
33 32 29 30 31 28 26 23 22 22 22 21 24 24 21 21 20 19 16 14 14 18 18 18 18 18 17 22 26 30 26 22 20 19 19 15 19 14 15 18 15 12 15 18 18
33 31 30 30 29 28 26 22 21 22 24 25 25 23 21 20 19 17 15 15 18 17 17 17 20 25 29 29 30 27 25 25 24 22 32 29 26 26 22 18 16 16 18 18 19
33 31 29 28 28 38 35 28 25 23 20 19 20 19 18 18 19 18 12 14 16 17 24 21 28 25 21 22 22 21 26 32 27 24 33 33 39 33 25 20 19 18 18 20 21
31 29 28 26 28 33 32 36 40 37 26 19 18 16 18 18 17 18 14 17 18 23 19 29 26 19 21 23 21 24 29 31 33 29 36 36 36 24 22 21 24 22 25 22 22
30 28 26 25 28 21 26 33 28 34 31 18 19 19 19 18 18 19 19 20 21 21 23 29 20 18 22 27 27 26 29 30 35 37 33 37 33 22 22 23 24 24 24 25 23
30 29 27 25 25 26 24 26 29 33 47 29 21 19 17 17 18 18 19 20 20 20 20 23 17 22 26 25 27 32 23 31 39 42 47 38 43 32 22 23 24 26 24 24 24
27 28 28 25 27 38 24 24 28 41 63 26 18 18 19 16 17 22 24 20 24 26 24 24 18 26 28 27 28 35 37 40 40 46 45 42 45 37 30 22 26 30 26 24 24
24 27 28 28 35 37 34 21 31 79 63 27 20 21 21 20 22 26 28 25 28 34 34 34 21 23 25 27 32 35 42 48 51 52 62 43 44 42 37 33 32 30 27 27 27
26 26 27 27 33 29 32 25 72 67 32 28 25 22 25 25 30 33 41 46 51 35 55 47 40 35 29 37 38 45 59 73 64 76 71 50 48 42 31 31 30 31 28 26 27
31 25 26 29 38 29 26 63 50 45 34 27 26 24 28 27 32 42 41 52 46 48 64 67 56 44 36 35 39 43 54 80 68 85 79 54 50 42 29 25 26 27 27 31 34
31 34 29 24 31 29 45 76 59 48 30 31 30 34 40 37 31 38 48 50 48 47 53 77 57 44 38 41 37 45 63 49 76 94 89 72 53 36 37 42 30 34 37 42 44
39 30 30 27 31 48 67 53 32 28 31 36 38 40 41 48 44 44 47 43 44 50 44 56 72 51 48 39 41 43 42 67 84 84 90 77 72 57 43 51 44 46 46 44 43
56 28 36 38 46 35 69 52 27 30 31 40 42 47 48 46 48 50 50 44 41 42 44 49 60 56 47 51 54 58 69 62 63 81 91 96 83 53 53 48 51 50 47 47 46
54 44 44 44 46 66 50 32 32 40 35 39 42 44 47 48 55 51 51 44 39 43 50 53 69 80 53 51 50 48 63 64 86 77 87 94 74 43 43 46 49 51 54 52 50
40 41 43 42 73 80 42 44 41 39 43 41 42 43 49 53 55 50 49 45 41 45 48 49 71 80 55 48 48 59 60 62 73 83 86 92 78 46 42 52 53 57 58 60 58
37 73 38 42 46 47 46 44 44 39 39 40 43 43 48 57 56 51 59 54 47 48 47 47 67 64 79 55 66 75 68 64 70 93 82 80 63 52 54 63 62 63 63 64 63
39 49 55 76 61 52 50 46 48 47 38 40 53 56 50 64 60 70 63 61 52 52 54 60 73 69 70 67 70 72 76 72 81 77 86 74 72 60 60 74 70 68 70 70 67
43 47 46 60 54 44 62 44 51 45 44 48 60 55 54 63 58 65 62 62 64 58 63 72 83 79 84 77 81 86 78 81 79 79 79 74 70 49 66 72 76 72 71 74 70
47 48 36 73 56 68 70 45 45 46 46 43 49 56 55 58 54 53 54 54 52 65 72 74 90 98 82 93 94 82 75 75 66 55 57 74 63 66 77 74 75 75 75 72 68

GFSSW_850_rhum_006.txt.gz
RH
29 27 26 26 25 24 24 22 20 24 22 17 24 26 24 15 12 11 18 21 20 18 17 15 15 13 12 10 8 9 19 18 12 11 10 11 11 12 14 22 23 36 31 35 48
33 30 28 26 27 26 26 23 23 26 17 22 24 25 23 14 17 22 22 19 17 16 16 13 10 10 11 11 11 14 19 14 13 12 12 13 11 10 15 27 32 28 30 37 56
38 34 32 30 29 28 25 22 25 19 20 23 23 26 24 15 18 22 21 19 17 16 16 12 12 13 14 13 13 15 18 15 14 12 11 14 14 12 17 24 25 19 31 44 59
41 37 35 32 30 27 23 25 24 17 22 21 21 26 22 19 22 22 20 18 16 15 15 14 14 16 21 19 15 16 15 14 14 13 15 15 15 14 14 12 12 16 21 31 46
40 38 33 28 26 24 24 25 18 19 20 18 25 22 19 22 22 21 19 18 15 14 14 14 15 17 21 19 17 16 16 16 15 14 14 14 15 14 14 13 13 17 32 32 33
36 31 27 26 26 26 26 22 19 19 18 24 27 24 20 22 22 21 19 18 15 18 18 18 19 16 18 19 18 18 18 18 17 17 16 16 17 15 13 13 13 16 25 32 32
31 29 29 30 29 28 27 25 20 19 24 26 25 22 21 22 21 21 20 18 15 19 19 20 20 15 17 19 19 19 20 21 19 19 18 16 17 16 13 12 13 15 28 31 30
35 33 30 27 26 27 26 22 22 23 24 26 27 22 21 21 20 20 16 15 15 18 18 19 18 16 16 19 20 23 24 25 18 20 16 14 23 16 12 17 17 14 22 32 32
36 32 29 29 28 27 27 25 23 23 22 24 24 23 21 20 18 17 15 12 17 17 16 17 16 17 18 21 26 31 24 23 23 25 30 18 23 16 15 20 20 18 17 33 41
35 33 32 30 29 28 26 22 22 22 22 22 23 21 20 19 18 18 11 17 17 16 16 16 16 24 30 28 25 27 24 28 26 26 34 34 31 31 25 23 23 19 18 23 25
34 32 29 29 37 33 24 22 23 20 19 19 20 19 18 18 18 18 10 17 16 14 24 23 29 27 23 24 23 23 26 32 30 27 35 37 42 32 24 23 22 22 21 21 21
32 29 28 29 33 30 27 29 32 32 22 19 19 17 18 18 18 19 16 17 18 24 20 29 26 21 26 26 23 24 29 30 33 32 36 39 37 23 26 28 29 28 27 24 21
30 28 27 29 26 29 30 27 31 31 22 19 20 19 18 19 20 20 20 22 21 22 28 30 22 23 24 30 33 31 27 29 35 38 36 39 31 32 23 25 26 27 26 24 22
29 28 27 29 24 27 28 27 26 34 46 29 21 19 18 17 19 25 23 21 22 22 23 26 21 25 32 29 30 37 26 32 39 46 47 39 42 37 35 25 31 26 24 24 24
30 29 27 24 23 25 26 24 27 41 52 25 20 19 19 17 19 26 26 21 33 32 28 24 23 31 36 30 30 38 40 43 41 49 47 48 46 36 35 27 28 28 25 25 25
28 28 27 33 28 32 24 22 35 71 53 29 22 24 22 24 28 28 29 25 29 38 41 38 26 28 29 29 35 38 46 44 54 55 63 49 49 44 40 34 32 31 29 28 27
25 27 27 37 34 33 31 25 65 68 35 30 27 24 27 31 36 38 45 52 53 32 59 49 42 40 33 41 40 49 55 64 62 74 70 51 52 42 34 31 30 30 27 28 31
28 26 26 27 28 30 25 60 47 45 36 29 27 32 33 31 38 46 45 55 48 50 70 67 51 45 39 38 42 47 56 77 59 87 82 59 54 44 32 34 30 31 35 38 41
34 29 27 35 34 28 43 74 58 48 31 31 33 38 40 40 39 45 51 53 50 51 55 80 56 47 42 45 40 46 66 54 79 96 90 73 56 42 44 48 38 44 45 44 43
31 29 31 29 31 47 66 56 34 36 33 36 40 41 42 51 45 47 48 44 45 52 46 56 68 49 48 41 42 48 47 65 84 88 87 74 70 62 57 54 57 53 47 47 46
50 29 48 45 46 31 70 53 32 39 35 41 44 48 50 49 49 52 51 44 42 46 46 50 60 49 46 53 56 60 68 65 68 83 93 97 80 56 55 53 59 53 55 54 54
43 43 48 44 40 61 52 35 37 42 38 42 44 46 49 53 56 53 52 47 43 47 53 57 70 76 50 45 53 54 57 64 83 71 90 93 85 46 49 54 51 56 59 58 58
38 43 42 40 70 80 45 46 42 40 47 41 44 48 51 56 56 52 53 53 47 48 52 50 71 76 47 50 52 60 61 65 77 84 85 95 74 50 50 53 55 60 60 60 56
36 74 40 33 43 50 48 45 47 41 44 48 50 45 53 60 63 59 59 53 52 53 51 50 69 60 71 53 59 73 70 68 73 91 82 82 65 54 52 59 60 61 60 61 59
36 59 55 74 65 55 52 44 50 46 41 45 53 54 52 64 61 70 62 61 52 57 60 63 75 72 71 68 71 74 79 78 88 80 88 68 77 64 62 62 65 63 64 64 68
40 48 52 64 52 48 64 46 54 49 44 51 58 56 56 59 54 62 63 63 62 57 65 74 80 83 87 84 86 93 83 85 84 84 87 82 86 59 52 69 67 61 66 74 78
46 42 40 80 59 68 69 48 46 48 49 45 52 56 55 57 51 51 54 54 59 60 68 75 92 98 86 89 92 73 59 76 69 68 67 69 54 53 71 72 68 70 75 83 93

GFSSW_850_rhum_012.txt.gz
RH
36 34 28 26 24 22 20 21 20 22 24 21 26 23 14 14 22 22 22 20 17 16 12 12 16 16 10 10 10 9 7 8 8 8 9 9 8 11 22 20 24 28 29 36 58
40 35 31 26 24 23 23 22 22 25 20 26 25 22 16 22 22 21 19 17 16 15 12 15 15 12 10 11 11 7 7 8 7 8 7 8 8 9 13 15 20 26 41 50 70
43 37 32 27 25 24 23 23 24 22 24 24 25 17 21 22 21 20 18 16 16 13 12 11 12 13 10 11 12 9 8 9 9 9 8 8 9 9 9 10 11 12 29 49 63
45 41 35 29 26 24 25 23 24 22 24 24 26 16 17 16 18 20 18 17 15 13 11 12 14 11 9 9 10 10 11 9 10 11 10 8 10 10 10 8 14 16 24 41 51
45 40 34 30 27 27 24 24 21 24 22 27 23 19 21 21 20 20 18 16 16 14 16 15 11 12 9 10 10 10 12 12 12 12 11 12 11 12 11 10 13 22 31 34 38
41 37 34 30 28 25 25 21 23 21 27 27 21 20 22 18 20 19 19 16 17 18 15 14 14 14 14 14 12 16 14 15 15 14 16 15 14 14 12 14 14 21 27 31 34
35 32 30 27 26 26 21 22 20 26 26 24 21 20 21 21 20 17 17 16 15 16 18 14 15 15 16 17 20 17 16 14 16 16 15 15 13 11 12 14 13 16 20 27 32
30 28 27 27 27 22 20 19 24 26 27 25 22 20 20 19 17 13 13 14 16 17 16 15 17 18 17 19 14 13 13 14 16 15 18 15 14 13 18 17 13 17 18 27 31
35 34 32 31 28 22 19 22 25 24 25 24 21 23 18 18 19 12 13 16 18 18 16 14 15 17 16 14 12 12 11 14 17 18 17 16 15 15 17 18 17 15 17 21 28
35 33 31 29 26 22 23 24 24 26 24 23 20 19 18 18 17 13 18 17 18 17 18 17 15 12 11 9 11 14 13 14 15 16 16 16 17 14 18 19 19 19 18 19 28
36 33 31 29 27 25 24 25 25 24 23 22 21 19 19 20 20 18 16 15 15 16 14 18 14 18 19 19 17 16 16 17 15 20 24 23 18 17 18 18 19 19 19 24 29
35 40 39 27 25 25 26 34 22 22 20 20 19 20 22 21 18 21 17 16 16 15 17 14 21 19 20 19 18 19 18 19 20 22 25 22 18 17 19 23 22 21 22 24 25
38 32 36 36 32 28 25 23 19 21 18 21 20 20 20 23 27 25 22 20 16 17 16 17 19 20 21 22 23 24 22 28 28 24 24 24 22 19 20 22 23 23 23 23 24
34 34 30 34 32 24 25 26 22 24 20 21 18 20 20 20 22 28 23 22 19 20 18 20 23 24 23 27 28 25 27 31 30 28 21 26 22 23 20 20 20 23 25 27 28
29 30 30 29 30 33 26 26 31 39 32 22 20 23 26 21 24 26 25 23 22 24 23 25 26 26 27 29 30 32 34 33 33 30 29 27 23 27 21 21 21 23 27 31 34
28 28 28 26 29 27 24 26 42 41 38 25 21 22 23 26 27 26 28 27 30 23 22 27 28 27 29 28 29 32 34 34 34 34 39 34 30 29 27 29 24 25 32 37 40
30 29 27 26 30 24 22 36 33 37 30 25 24 23 26 30 30 28 31 36 30 30 33 27 30 29 33 27 30 27 30 35 47 46 41 35 32 38 31 28 30 31 37 44 47
29 30 29 28 28 25 26 40 37 36 30 25 24 25 29 30 32 32 30 32 33 31 31 32 37 35 34 36 37 36 36 48 50 46 38 35 32 34 31 33 36 38 41 42 45
28 29 28 34 26 28 41 47 42 30 24 25 25 26 32 31 30 32 38 36 40 38 37 38 37 33 35 34 35 36 44 40 55 80 63 34 34 34 31 31 33 37 41 43 44
33 31 30 29 28 31 44 38 33 30 30 25 29 31 33 34 34 34 38 38 39 40 39 43 43 36 34 36 36 34 37 43 41 71 43 23 27 25 37 34 34 36 38 42 44
31 37 40 33 39 39 45 39 34 40 38 31 34 37 37 39 35 40 41 39 38 39 37 35 40 37 37 40 40 40 42 42 39 50 51 49 27 32 33 34 35 38 41 45 49
36 42 49 47 40 42 36 32 38 37 40 38 37 37 38 43 44 44 45 41 48 43 40 45 46 38 33 41 41 38 40 38 46 47 52 65 42 30 31 35 40 39 46 50 53
49 52 50 42 60 67 43 40 41 36 39 36 42 40 40 46 51 45 46 53 52 42 44 43 46 35 35 43 40 43 41 44 49 58 61 75 42 28 32 35 33 39 46 49 49
43 68 45 41 50 36 40 42 43 44 46 43 43 40 42 46 45 52 51 50 55 50 51 49 46 41 28 28 35 38 36 39 45 67 51 48 39 31 27 29 33 38 50 51 52
43 59 53 61 51 39 38 38 41 42 43 43 40 39 42 55 50 53 48 47 50 56 56 49 49 48 41 39 38 42 42 38 42 46 60 48 39 34 32 34 40 50 53 54 59
54 55 60 57 52 40 50 40 39 43 38 42 40 42 36 42 34 47 37 38 35 51 48 52 56 66 58 48 42 49 40 37 42 44 46 45 46 35 39 47 53 55 58 65 76
42 42 50 67 53 50 48 41 40 42 51 42 40 41 54 40 41 53 56 55 49 46 56 62 69 74 82 62 62 79 50 38 38 42 44 52 39 42 46 54 59 62 69 82 93